FW8134 Weather Reports


Display with metric or nautical units.
time (UTC)temp
F
wind
direction
speed
MPH
gust
MPH
rain 1hr
in
rain 24hr
in
rain mn
in
humidity
%
barometer
mb
20260905121040 72 29 1.0 5.0 0.00 0.03 0.00 57 1007.5
20260905120016 71 167 2.0 4.0 0.00 0.03 0.00 57 1007.6
20260905115017 71 323 2.0 9.0 0.00 0.03 0.00 58 1007.5
20260905114019 71 357 3.0 7.0 0.00 0.03 0.00 61 1007.3
20260905113020 70 39 3.0 7.0 0.00 0.03 0.00 61 1007.4
20260905112016 71 353 2.0 5.0 0.00 0.03 0.00 61 1007.5
20260905111017 69 37 2.0 7.0 0.00 0.03 0.00 62 1007.5
20260905110018 69 33 2.0 5.0 0.00 0.03 0.00 63 1007.5
20260905105019 69 20 3.0 8.0 0.00 0.03 0.00 63 1007.6
20260905104016 68 288 2.0 7.0 0.00 0.03 0.00 66 1007.6
20260905103037 68 35 1.0 5.0 0.00 0.03 0.00 67 1007.6
20260905102038 67 353 3.0 7.0 0.00 0.03 0.00 68 1007.6
20260905101019 67 13 3.0 9.0 0.00 0.03 0.00 69 1007.6
20260905100015 67 323 3.0 8.0 0.00 0.03 0.00 70 1007.6
20260905095016 67 347 2.0 6.0 0.00 0.03 0.00 71 1007.6
20260905094017 67 294 2.0 6.0 0.00 0.03 0.00 71 1007.5
20260905093018 66 75 1.0 10.0 0.00 0.03 0.00 74 1007.4
20260905092019 66 334 3.0 10.0 0.00 0.03 0.00 74 1007.3
20260905091035 66 335 3.0 7.0 0.00 0.03 0.00 75 1007.3
20260905090036 65 5 3.0 8.0 0.00 0.03 0.00 76 1007.2
20260905085037 65 36 3.0 8.0 0.00 0.03 0.00 75 1007.1
20260905084018 64 2 3.0 6.0 0.00 0.03 0.00 77 1007.0
20260905083019 64 294 2.0 9.0 0.00 0.03 0.00 79 1007.0
20260905082016 64 30 4.0 9.0 0.00 0.03 0.00 79 1006.9
20260905081017 63 24 5.0 12.0 0.00 0.03 0.00 80 1006.8
20260905080018 63 7 3.0 6.0 0.00 0.03 0.00 82 1006.7
20260905075019 63 299 1.0 4.0 0.00 0.03 0.00 84 1006.6
20260905074020 63 10 2.0 5.0 0.00 0.03 0.00 86 1006.4
20260905073016 63 333 0.0 3.0 0.00 0.03 0.00 89 1006.4
20260905072017 62 339 0.0 4.0 0.00 0.03 0.00 90 1006.4
20260905071018 62 255 1.0 5.0 0.00 0.03 0.00 92 1006.3
20260905070019 61 195 0.0 2.0 0.00 0.03 0.00 94 1006.3
20260905065016 60 295 1.0 4.0 0.00 0.03 0.00 95 1006.1
20260905064017 59 238 1.0 4.0 0.00 0.03 0.00 95 1006.0
20260905063018 59 226 1.0 3.0 0.00 0.03 0.00 96 1006.0
20260905062019 58 0.0 0.0 0.00 0.03 0.00 96 1005.9
20260905061020 58 0.0 0.0 0.00 0.03 0.00 96 1005.7
20260905060017 57 0.0 0.0 0.00 0.03 0.00 96 1005.6
20260905055038 57 0.0 0.0 0.00 0.03 0.00 95 1005.5
20260905054019 57 0.0 0.0 0.00 0.03 0.00 95 1005.3
20260905053020 57 0.0 0.0 0.00 0.03 0.00 95 1005.2
20260905052037 58 0.0 0.0 0.00 0.03 0.00 95 1005.1
20260905051018 58 0.0 0.0 0.00 0.03 0.00 95 1005.1
20260905050019 58 0.0 0.0 0.00 0.03 0.00 94 1005.0
20260905045020 59 0.0 0.0 0.00 0.03 0.00 94 1004.9
20260905044016 59 0.0 0.0 0.00 0.03 0.00 94 1004.9
20260905043017 60 0.0 0.0 0.00 0.03 0.00 94 1004.7
20260905042019 60 0.0 0.0 0.00 0.03 0.00 94 1004.7
20260905041040 60 0.0 0.0 0.00 0.03 0.00 94 1004.7
20260905040016 60 0.0 0.0 0.00 0.03 0.00 94 1004.6
20260905035017 60 0.0 0.0 0.00 0.03 0.00 93 1004.6
20260905034018 60 0.0 0.0 0.00 0.03 0.00 93 1004.5
20260905033020 60 0.0 0.0 0.00 0.03 0.00 93 1004.5
20260905032016 60 0.0 0.0 0.00 0.03 0.00 93 1004.5
20260905031017 60 0.0 0.0 0.00 0.03 0.00 93 1004.4
20260905030018 60 0.0 0.0 0.00 0.03 0.00 93 1004.2
20260905025019 60 0.0 0.0 0.00 0.03 0.00 93 1004.2
20260905024015 61 0.0 0.0 0.00 0.03 0.00 93 1004.2
20260905023017 61 0.0 0.0 0.00 0.03 0.00 94 1004.0
20260905022018 61 205 0.0 2.0 0.00 0.03 0.00 94 1004.0
20260905021019 61 221 0.0 1.0 0.00 0.03 0.00 94 1004.0
20260905020015 61 253 0.0 3.0 0.00 0.03 0.00 95 1004.0
20260905015037 62 257 1.0 3.0 0.00 0.03 0.00 95 1003.8
20260905014018 62 313 1.0 4.0 0.00 0.03 0.00 95 1003.7
20260905013019 62 213 0.0 2.0 0.00 0.03 0.00 96 1003.5
20260905012020 63 288 0.0 2.0 0.00 0.03 0.00 96 1003.5
20260905011036 63 214 0.0 2.0 0.00 0.03 0.00 96 1003.5
20260905010037 63 0.0 0.0 0.00 0.03 0.00 96 1003.4
20260905005018 63 0.0 0.0 0.00 0.03 0.00 96 1003.3
20260905004020 63 0.0 0.0 0.00 0.03 0.00 96 1003.3
20260905003041 63 0.0 0.0 0.00 0.03 0.00 96 1003.2
20260905002057 63 0.0 0.0 0.00 0.03 0.00 96 1003.2
20260905001018 63 0.0 0.0 0.00 0.03 0.00 96 1003.1
20260905000019 63 0.0 0.0 0.00 0.03 0.00 96 1003.2
20260904235021 63 248 0.0 2.0 0.00 0.03 0.00 95 1003.1
20260904234037 63 0.0 0.0 0.00 0.03 0.00 95 1003.0
20260904233018 63 0.0 0.0 0.00 0.03 0.00 95 1003.1
20260904232019 63 0.0 0.0 0.00 0.03 0.00 95 1002.9
20260904231020 64 0.0 0.0 0.00 0.03 0.00 95 1003.1
20260904230016 64 0.0 0.0 0.00 0.03 0.00 95 1002.8
20260904225017 64 0.0 0.0 0.00 0.03 0.00 95 1003.2
20260904224019 64 0.0 0.0 0.00 0.03 0.00 94 1003.0
20260904223020 64 0.0 0.0 0.02 0.03 0.00 94 1002.7
20260904222016 64 0.0 0.0 0.03 0.03 0.00 94 1002.9
20260904221017 65 0.0 0.0 0.03 0.03 0.00 94 1002.8
20260904220019 65 0.0 0.0 0.03 0.03 0.00 93 1003.0
20260904215020 65 291 0.0 1.0 0.03 0.03 0.03 92 1002.9
20260904214016 65 263 1.0 4.0 0.03 0.03 0.03 92 1002.9
20260904213017 66 225 1.0 7.0 0.02 0.02 0.02 92 1002.9
20260904212018 67 314 1.0 3.0 0.00 0.00 0.00 91 1002.6
20260904211021 67 255 0.0 1.0 0.00 0.00 0.00 92 1002.4
20260904210016 67 315 0.0 2.0 0.00 0.00 0.00 91 1002.4
20260904205017 67 186 0.0 4.0 0.00 0.00 0.00 91 1002.3
20260904204018 67 191 1.0 5.0 0.00 0.00 0.00 91 1002.3
20260904203020 67 218 1.0 5.0 0.00 0.00 0.00 91 1002.2
20260904202016 67 256 0.0 2.0 0.00 0.00 0.00 91 1002.2
20260904201017 67 326 0.0 2.0 0.00 0.00 0.00 91 1002.2
20260904200018 67 239 1.0 3.0 0.00 0.00 0.00 90 1002.0
20260904195019 68 233 1.0 4.0 0.00 0.00 0.00 89 1002.0
20260904194015 69 229 2.0 7.0 0.00 0.00 0.00 87 1001.9
20260904193017 70 270 3.0 9.0 0.00 0.00 0.00 85 1001.8
20260904192018 70 24 2.0 6.0 0.00 0.00 0.00 84 1001.5
20260904191039 71 0 3.0 11.0 0.00 0.00 0.00 82 1001.3
20260904190040 73 358 4.0 10.0 0.00 0.00 0.00 76 1000.9
20260904185016 74 206 1.0 5.0 0.00 0.00 0.00 73 1000.6
20260904184018 74 9 1.0 9.0 0.00 0.00 0.00 73 1000.5
20260904183039 74 287 1.0 8.0 0.00 0.00 0.00 72 1000.4
20260904182020 75 243 0.0 4.0 0.00 0.00 0.00 72 1000.4
20260904181016 75 240 1.0 2.0 0.00 0.00 0.00 71 1000.4
20260904180018 75 301 1.0 6.0 0.00 0.00 0.00 71 1000.2
20260904175019 75 221 1.0 4.0 0.00 0.00 0.00 70 1000.2
20260904174020 75 197 1.0 4.0 0.00 0.00 0.00 70 1000.3
20260904173016 76 205 1.0 8.0 0.00 0.00 0.00 69 1000.3
20260904172038 77 250 2.0 6.0 0.00 0.00 0.00 68 1000.2
20260904171024 78 215 2.0 9.0 0.00 0.00 0.00 68 1000.2
20260904170040 78 191 2.0 7.0 0.00 0.00 0.00 67 1000.2
20260904165016 79 330 4.0 9.0 0.00 0.00 0.00 65 1000.1
20260904164017 79 238 4.0 10.0 0.00 0.00 0.00 64 1000.0
20260904163018 79 218 3.0 8.0 0.00 0.00 0.00 66 1000.0
20260904162020 79 226 3.0 13.0 0.00 0.00 0.00 65 999.9
20260904161036 79 220 4.0 11.0 0.00 0.00 0.00 65 999.9
20260904160017 79 236 3.0 11.0 0.00 0.00 0.00 66 999.8
20260904155019 79 200 3.0 10.0 0.00 0.00 0.00 66 999.9
20260904154019 79 223 4.0 9.0 0.00 0.00 0.00 65 999.8
20260904153016 80 206 3.0 10.0 0.00 0.00 0.00 65 999.7
20260904152017 80 203 3.0 6.0 0.00 0.00 0.00 65 999.7
20260904151018 80 226 4.0 12.0 0.00 0.00 0.00 65 999.6
20260904150019 79 236 2.0 7.0 0.00 0.00 0.00 67 999.6
20260904145035 79 247 4.0 10.0 0.00 0.00 0.00 65 999.6
20260904144017 80 247 3.0 8.0 0.00 0.00 0.00 66 999.6
20260904143018 81 199 3.0 9.0 0.00 0.00 0.00 65 999.6
20260904142039 80 257 2.0 11.0 0.00 0.00 0.00 65 999.6
20260904141035 80 233 4.0 11.0 0.00 0.00 0.00 63 999.6
20260904140016 81 243 2.0 12.0 0.00 0.00 0.00 63 999.6
20260904135017 82 323 3.0 6.0 0.00 0.00 0.00 63 999.7
20260904134018 82 232 3.0 9.0 0.00 0.00 0.00 62 999.7
20260904133040 81 242 2.0 9.0 0.00 0.00 0.00 64 999.6
20260904132016 80 239 4.0 12.0 0.00 0.00 0.00 65 999.6
20260904131017 81 229 4.0 16.0 0.00 0.00 0.00 64 999.6
20260904130018 81 247 3.0 11.0 0.00 0.00 0.00 64 999.6
20260904125019 80 302 4.0 11.0 0.00 0.00 0.00 65 999.7
20260904124035 80 295 2.0 8.0 0.00 0.00 0.00 66 999.7
20260904123017 80 343 2.0 8.0 0.00 0.00 0.00 65 999.8
20260904122018 79 264 3.0 7.0 0.00 0.00 0.00 66 999.7